Date String (YYYY-MM-DD hh:mm:ss) UTC,Instrument flags,absolute air pressure of the measurement (hPa),sample flow rate (lpm),inlet stack bypass flow (lpm),air temperature of the measurement (°C),ambient temperature measured by the external sensor (°C),aerosol sample conditioner tube jacket temperature (°C),OPC LED temperature (°C),internal box temperature (°C),relative humidity of the measurement (%),span deviation,mass concentration of particles derived from Lorenz-Mie calculation of OPC scattering (μg/m³),mass concentration of particles derived from Lorenz-Mie calculation of OPC scattering (μg/m³),mass concentration of particles derived from Lorenz-Mie calculation of OPC scattering (μg/m³)
DateTimeUTC,F1_M11,P_M11,Q1_M11,Q2_M11,T1_M11,T2_M11,T3_M11,T4_M11,T5_M11,U1_M11,ZSPAN_M11,X2_M11,X0_M11,X1_M11
2024-02-23 01:00:00,SystemResetWarning,0831.5,4.99,000.00,022.4,021.8,000.0,030.9,024.2,17.6,0000.0,0000.73,0001.20,0000.46
2024-02-23 01:01:00,SystemResetWarning,0831.5,4.99,000.00,022.4,021.7,000.0,030.9,024.2,17.7,0000.0,0000.73,0001.19,0000.46
2024-02-23 01:02:00,SystemResetWarning,0831.5,5.01,000.00,022.4,021.7,000.0,030.9,024.1,17.9,0000.0,0000.73,0002.92,0000.46
2024-02-23 01:03:00,SystemResetWarning,0831.4,5.01,000.00,022.4,021.7,000.0,030.8,024.1,17.9,0000.0,0000.75,0002.98,0000.46
2024-02-23 01:04:00,SystemResetWarning,0831.5,5.01,000.00,022.4,021.7,000.0,030.8,024.2,18.0,0000.0,0000.75,0003.00,0000.45
2024-02-23 01:05:00,SystemResetWarning,0831.5,4.99,000.00,022.3,021.7,000.0,030.8,024.1,18.0,0000.0,0000.77,0003.06,0000.46
2024-02-23 01:06:00,SystemResetWarning,0831.5,5.00,000.00,022.3,021.7,000.0,030.8,024.1,17.9,0000.0,0000.78,0003.09,0000.47
2024-02-23 01:07:00,SystemResetWarning,0831.5,4.99,000.00,022.3,021.7,000.0,030.8,024.1,17.8,0000.0,0000.79,0003.09,0000.48
2024-02-23 01:08:00,SystemResetWarning,0831.5,5.00,000.00,022.3,021.6,000.0,030.8,024.1,17.9,0000.0,0000.83,0003.19,0000.49
2024-02-23 01:09:00,SystemResetWarning,0831.4,4.99,000.00,022.3,021.6,000.0,030.8,024.1,17.8,0000.0,0000.82,0004.74,0000.49
2024-02-23 01:10:00,SystemResetWarning,0831.5,5.00,000.00,022.3,021.6,000.0,030.8,024.0,17.6,0000.0,0000.83,0004.75,0000.50
2024-02-23 01:11:00,SystemResetWarning,0831.5,5.02,000.00,022.3,021.6,000.0,030.8,024.0,17.8,0000.0,0000.87,0004.83,0000.52
2024-02-23 01:12:00,SystemResetWarning,0831.5,5.00,000.00,022.2,021.5,000.0,030.7,024.0,17.9,0000.0,0000.88,0004.90,0000.54
2024-02-23 01:13:00,SystemResetWarning,0831.5,5.00,000.00,022.2,021.5,000.0,030.7,024.0,18.0,0000.0,0000.86,0003.69,0000.56
2024-02-23 01:14:00,SystemResetWarning,0831.5,5.00,000.00,022.2,021.5,000.0,030.7,023.9,18.1,0000.0,0000.87,0003.30,0000.58
2024-02-23 01:15:00,SystemResetWarning,0831.5,4.99,000.00,022.2,021.5,000.0,030.7,023.9,18.1,0000.0,0000.89,0003.31,0000.62
2024-02-23 01:16:00,SystemResetWarning,0831.5,5.00,000.00,022.2,021.5,000.0,030.7,023.9,18.1,0000.0,0000.88,0003.27,0000.63
2024-02-23 01:17:00,SystemResetWarning,0831.5,5.00,000.00,022.2,021.5,000.0,030.7,023.9,18.1,0000.0,0000.86,0003.20,0000.63
2024-02-23 01:18:00,SystemResetWarning,0831.5,5.01,000.00,022.1,021.5,000.0,030.7,023.9,18.0,0000.0,0000.88,0003.22,0000.63
2024-02-23 01:19:00,SystemResetWarning,0831.5,5.01,000.00,022.1,021.5,000.0,030.7,023.8,18.1,0000.0,0000.83,0003.13,0000.63
2024-02-23 01:20:00,SystemResetWarning,0831.5,5.00,000.00,022.1,021.4,000.0,030.6,023.8,18.1,0000.0,0000.82,0001.81,0000.64
2024-02-23 01:21:00,SystemResetWarning,0831.5,5.00,000.00,022.1,021.4,000.0,030.6,023.8,18.1,0000.0,0000.82,0002.62,0000.64
2024-02-23 01:22:00,SystemResetWarning,0831.6,5.00,000.00,022.1,021.4,000.0,030.6,023.8,18.0,0000.0,0000.82,0002.65,0000.63
2024-02-23 01:23:00,SystemResetWarning,0831.6,4.99,000.00,022.1,021.4,000.0,030.6,023.8,18.0,0000.0,0000.83,0002.74,0000.63
2024-02-23 01:24:00,SystemResetWarning,0831.6,4.99,000.00,022.0,021.3,000.0,030.6,023.8,18.1,0000.0,0000.83,0002.63,0000.63
2024-02-23 01:25:00,SystemResetWarning,0831.6,5.00,000.00,022.0,021.3,000.0,030.5,023.8,18.1,0000.0,0000.83,0002.71,0000.61
2024-02-23 01:26:00,SystemResetWarning,0831.6,5.01,000.00,022.0,021.3,000.0,030.5,023.8,18.0,0000.0,0000.82,0002.70,0000.59
2024-02-23 01:27:00,SystemResetWarning,0831.6,5.02,000.00,022.0,021.3,000.0,030.5,023.7,18.0,0000.0,0000.86,0002.79,0000.59
2024-02-23 01:28:00,SystemResetWarning,0831.6,4.99,000.00,022.0,021.3,000.0,030.5,023.7,18.0,0000.0,0000.90,0002.99,0000.60
2024-02-23 01:29:00,SystemResetWarning,0831.6,4.98,000.00,022.0,021.2,000.0,030.5,023.7,18.0,0000.0,0000.89,0002.98,0000.60
2024-02-23 01:30:00,SystemResetWarning,0831.6,5.01,000.00,021.9,021.2,000.0,030.5,023.7,17.9,0000.0,0000.89,0002.97,0000.61
2024-02-23 01:31:00,SystemResetWarning,0831.6,5.01,000.00,021.9,021.2,000.0,030.5,023.7,17.9,0000.0,0000.91,0002.87,0000.62
2024-02-23 01:32:00,SystemResetWarning,0831.7,5.00,000.00,021.9,021.2,000.0,030.5,023.6,17.8,0000.0,0000.90,0001.89,0000.62
2024-02-23 01:33:00,SystemResetWarning,0831.6,5.00,000.00,021.9,021.2,000.0,030.4,023.6,17.4,0000.0,0000.90,0001.90,0000.63
2024-02-23 01:34:00,SystemResetWarning,0831.6,4.99,000.00,021.9,021.2,000.0,030.4,023.6,17.7,0000.0,0000.91,0001.84,0000.63
2024-02-23 01:35:00,SystemResetWarning,0831.6,5.00,000.00,021.9,021.2,000.0,030.4,023.6,17.8,0000.0,0000.94,0001.94,0000.63
2024-02-23 01:36:00,SystemResetWarning,0831.6,5.00,000.00,021.8,021.2,000.0,030.4,023.6,17.7,0000.0,0000.96,0002.30,0000.64
2024-02-23 01:37:00,SystemResetWarning,0831.6,5.00,000.00,021.8,021.2,000.0,030.4,023.6,17.8,0000.0,0000.98,0003.11,0000.66
2024-02-23 01:38:00,SystemResetWarning,0831.7,5.00,000.00,021.8,021.2,000.0,030.4,023.6,17.8,0000.0,0001.05,0003.33,0000.68
2024-02-23 01:39:00,SystemResetWarning,0831.7,5.00,000.00,021.8,021.2,000.0,030.4,023.6,17.7,0000.0,0001.08,0004.12,0000.70
2024-02-23 01:40:00,SystemResetWarning,0831.7,5.00,000.00,021.8,021.2,000.0,030.4,023.6,17.5,0000.0,0001.15,0005.52,0000.72
2024-02-23 01:41:00,SystemResetWarning,0831.7,5.00,000.00,021.8,021.2,000.0,030.3,023.6,17.4,0000.0,0001.18,0005.75,0000.74
2024-02-23 01:42:00,SystemResetWarning,0831.7,5.00,000.00,021.8,021.2,000.0,030.3,023.6,17.1,0000.0,0001.21,0005.86,0000.76
2024-02-23 01:43:00,SystemResetWarning,0831.7,4.99,000.00,021.8,021.2,000.0,030.3,023.6,16.7,0000.0,0001.30,0006.07,0000.78
2024-02-23 01:44:00,SystemResetWarning,0831.7,5.00,000.00,021.8,021.2,000.0,030.3,023.6,15.8,0000.0,0001.38,0006.16,0000.80
2024-02-23 01:45:00,SystemResetWarning,0831.7,5.00,000.00,021.8,021.2,000.0,030.3,023.6,15.5,0000.0,0001.41,0006.36,0000.82
2024-02-23 01:46:00,SystemResetWarning,0831.7,5.00,000.00,021.8,021.2,000.0,030.3,023.6,15.8,0000.0,0001.44,0007.27,0000.84
2024-02-23 01:47:00,SystemResetWarning,0831.7,5.01,000.00,021.8,021.2,000.0,030.3,023.6,15.9,0000.0,0001.52,0007.60,0000.86
2024-02-23 01:48:00,SystemResetWarning,0831.7,5.01,000.00,021.8,021.2,000.0,030.3,023.7,15.7,0000.0,0001.57,0007.56,0000.89
2024-02-23 01:49:00,SystemResetWarning,0832.0,5.00,000.00,021.8,021.2,000.0,030.3,023.7,16.1,0000.0,0001.56,0007.57,0000.91
2024-02-23 01:50:00,SystemResetWarning,0832.1,5.00,000.00,021.8,021.3,000.0,030.3,023.7,16.1,0000.0,0001.54,0007.05,0000.92
2024-02-23 01:51:00,SystemResetWarning,0832.2,4.99,000.00,021.8,021.3,000.0,030.3,023.7,16.2,0000.0,0001.55,0006.08,0000.93
2024-02-23 01:52:00,SystemResetWarning,0831.7,5.00,000.00,021.8,021.3,000.0,030.3,023.7,16.4,0000.0,0001.58,0005.77,0000.93
2024-02-23 01:53:00,SystemResetWarning,0831.9,5.00,000.00,021.8,021.3,000.0,030.3,023.7,16.7,0000.0,0001.60,0005.86,0000.93
2024-02-23 01:54:00,SystemResetWarning,0831.9,5.00,000.00,021.8,021.3,000.0,030.3,023.7,16.6,0000.0,0001.55,0005.73,0000.92
2024-02-23 01:55:00,SystemResetWarning,0831.9,5.01,000.00,021.8,021.3,000.0,030.3,023.7,16.8,0000.0,0001.44,0005.52,0000.90
2024-02-23 01:56:00,SystemResetWarning,0831.9,5.01,000.00,021.8,021.3,000.0,030.3,023.7,16.8,0000.0,0001.40,0005.43,0000.89
2024-02-23 01:57:00,SystemResetWarning,0831.9,4.99,000.00,021.8,021.3,000.0,030.3,023.7,16.8,0000.0,0001.33,0004.23,0000.88
2024-02-23 01:58:00,SystemResetWarning,0831.9,4.99,000.00,021.9,021.3,000.0,030.3,023.7,17.0,0000.0,0001.29,0003.46,0000.86
2024-02-23 01:59:00,SystemResetWarning,0831.9,5.00,000.00,021.9,021.3,000.0,030.3,023.8,17.4,0000.0,0001.29,0002.71,0000.84
